Вернуться в каталог

STARLINK DEPLOYMENT RAIL

АктивенSSO
NORAD 47436·DEBRIS·🇺🇸 United States
Это название спутника еще не подтверждено официальными источниками.

Запущен Jan 24, 2021 с Cape Canaveral Space Force Station

Loading…

Ближайшие Пролёты (ближайшие 24 часа)

TLE

СвежийSource: Space-Track

Эпоха: Sep 14, 2026, 20:29 UTC

1 47436U 21006Z   26257.85357573  .00004254  00000-0  13644-3 0  9994
2 47436  97.2151 297.7626 0008276 226.6402 133.4152 15.32835402313127

Отслеживайте STARLINK DEPLOYMENT RAIL в реальном времени с AllMySat

Download on the App Store